www.pogodaiklimat.ru

Погода и климат >> Архив погоды >> Беларусь >> Новогрудок


ПОГОДА в Новогрудке

  • Прогноз погоды в Новогрудке
  • Монитор погоды в Новогрудке

АРХИВ ПОГОДЫ в Новогрудке

Время (UTC), дата Ветер
(напр.,м/с)
 
Видим.   Явления Облачность Т
(С)
Тd
(С)
f
(%)
Тe
(С)
Тes
(С)
Комфортность P
(гПа)
Po
(гПа)
Тmin
(С)
Tmax
(С)
R
(мм)
R24
(мм)
S
(см)
09 17.02 ЮЗ 5
{11}
8000 м дымка 10/0
[As trans]
+2.6 +1.0 89 -3 -3 1019.0 984.2
12 17.02 З 3
{10}
6000 м дымка 10/6 300 м
[St As op]
+3.1 +2.1 93 -1 -1 1019.0 984.3
15 17.02 СЗ 4 6000 м дымка 8/4 300 м
[St As trans]
+3.4 +2.4 93 -1 -1 1020.0 985.3
18 17.02 З 3 6000 м дымка 9/6 300 м
[St As trans]
+3.3 +2.3 93 -1 -1 1021.0 986.2 +3.4 8
21 17.02 СЗ 3 6000 м дымка 9/8 600 м
[Sc Ac trans]
+2.8 +1.9 94 -1 -1 1022.0 987.1
00 18.02 З 2 5000 м дымка 9/9 600 м
[Sc]
+2.8 +2.2 96 -1 -1 1023.0 988.1
03 18.02 СЗ 1 600 м туман ?/? +0.2 +0.2 100 -2 -2 1024.0 988.7 0.0 8
06 18.02 штиль 0 7000 м дымка {туман} [диам. гололёда 0 мм] 6/0
[Ac trans Cc]
-2.6 -3.6 93 -4 -4 1025.0 989.3 -3.5 8
09 18.02 СВ 1 200 м туман ?/? -2.0 -2.3 98 -4 -0 1027.0 991.3
12 18.02 штиль 0 10 км {туман} 5/0
[Ac trans Ci sp]
+3.7 -0.9 72 +3 +5 1025.0 990.1
15 18.02 ЮВ 2 10 км 3/0
[Ci fib]
+1.2 -2.4 77 -2 -2 1024.0 988.8
18 18.02 Ю 2 10 км ясно -1.2 -3.6 84 -5 -5 1024.0 988.5 +4.6 8
21 18.02 Ю 3 10 км ясно -1.2 -3.6 84 -6 -6 1024.0 988.5
00 19.02 Ю 3 10 км ясно -1.0 -3.8 81 -6 -6 1023.0 987.6
03 19.02 Ю 4 10 км ясно -1.4 -5.1 76 -7 -7 1021.0 985.6 -1.5 8
06 19.02 Ю 6 8000 м дымка 3/0
[Ci fib]
-1.3 -3.3 86 -8 -8 1018.0 982.7 -1.9 8
09 19.02 Ю 7-10
{11}
8000 м дымка 3/0
[Ci fib]
+1.9 -0.4 85 -5 -4 1015.0 980.2
12 19.02 Ю 5
{10}
10 км ясно +5.5 +0.3 69 +1 +3 1012.0 977.8
15 19.02 Ю 6 10 км ясно +6.5 +0.4 65 +2 +2 1010.0 976.0
18 19.02 ЮЗ 5 10 км ясно +5.2 +0.4 71 +1 +1 1009.0 974.9 +7.7 6
21 19.02 ЮЗ 6
{11}
10 км 8/0
[Ac trans]
+5.0 +0.2 71 0 0 1008.0 973.9
00 20.02 ЮЗ 4
{11}
10 км в посл. час ливневой дождь 10/0
[Ac trans Cs]
+2.6 +1.7 94 -2 -2 1009.0 974.6
03 20.02 ЮЗ 6
{11}
4500 м дымка 10/10 300 м
[St]
+2.8 +2.2 96 -3 -3 1008.0 973.6 +2.5 5
06 20.02 ЮЗ 7
{11}
6000 м дымка 9/8 300 м
[St Ac trans]
+2.7 +1.7 93 -4 -4 1008.0 973.6 +2.5 0.7 5
09 20.02 З 8-10
{14}
10 км в посл. час дождь 10/9 300 м
[Frnb As op]
+3.2 +0.6 83 -3 -3 1008.0 973.7
12 20.02 ЮЗ 7-13
{15}
10 км {дождь} 9/6 300 м
[Cb cap Ac trans]
+3.8 -0.2 75 -2 -2 1009.0 974.7
15 20.02 ЮЗ 7-11
{15}
10 км 8/8 300 м
[Cb cap]
+4.0 -1.2 69 -2 -2 1008.0 973.7
18 20.02 З 7-14
{19}
10 км {ливн. осадки} ясно +1.5 -1.2 82 -5 -5 1010.0 975.4 +4.4 0.3 2
21 20.02 СЗ 5-10
{17}
10 км 9/9 600 м
[Sc]
-0.3 -6.1 65 -6 -6 1013.0 978.0
00 21.02 З 5-10
{15}
10 км 4/4 600 м
[Sc]
-2.3 -6.7 72 -9 -9 1015.0 979.7
03 21.02 З 6-12
{15}
10 км 5/5 600 м
[Sc]
-3.3 -7.3 74 -11 -11 1016.0 980.5 -3.4 2
06 21.02 З 5-10
{15}
10 км 3/0
[Ci sp]
-4.0 -7.4 77 -11 -11 1017.0 981.4 -4.2 2
09 21.02 СЗ 5
{11}
10 км 4/3 600 м
[Sc Ac trans]
-3.0 -7.7 70 -9 -8 1019.0 983.5
12 21.02 СЗ 3 10 км 4/3 600 м
[Sc Ac trans]
-1.6 -6.5 69 -6 -4 1019.0 983.6
15 21.02 СЗ 4 10 км 4/0
[Ac trans Ci sp]
-1.4 -7.5 63 -7 -7 1020.0 984.6
18 21.02 С 4 10 км ясно -3.5 -11.5 54 -9 -9 1021.0 985.3 -1.4 2
21 21.02 С 5 10 км 6/0
[Ac trans Ci fib]
-4.6 -11.8 57 -11 -11 1023.0 987.1
00 22.02 С 5 10 км 8/0
[Cs]
-6.3 -13.4 57 -13 -13 1025.0 988.8
03 22.02 С 4 10 км ясно -8.4 -13.8 65 -15 -15 1027.0 990.4 -8.5 2
06 22.02 С 5 10 км ясно -9.3 -13.7 70 -17 -17 1030.0 993.2 -9.4 2
09 22.02 С 6-10
{13}
10 км ясно -5.9 -13.9 53 -13 -12 1032.0 995.6
12 22.02 СЗ 7-13
{16}
10 км 4/4 600 м
[Cu hum]
-3.6 -12.8 49 -11 -10 1033.0 996.9
15 22.02 С 8-15
{17}
10 км 3/3 600 м
[Sc diur, vesp]
-3.7 -13.6 46 -11 -11 1034.0 997.8
18 22.02 С 7-13
{16}
10 км 1/0
[Ci fib]
-5.2 -12.6 56 -13 -13 1037.0 1000.5 -3.1 2
21 22.02 С 4
{13}
10 км ясно -6.0 -11.3 66 -12 -12 1039.0 1002.3
00 23.02 С 3 10 км ясно -6.3 -11.4 67 -12 -12 1042.0 1005.2
03 23.02 СЗ 4 10 км ясно -7.8 -12.0 72 -14 -14 1043.0 1006.0 -7.9 2
06 23.02 СЗ 2 10 км 6 баллов -8.9 -13.4 70 -13 -13 1044.0 1006.8 -9.2 2
09 23.02 З 2 10 км 10/0
[Cs]
-4.3 -11.7 56 -8 -8 1044.0 1007.4
12 23.02 З 3 10 км 10 баллов -2.4 -14.8 38 -7 -7 1043.0 1006.7
15 23.02 ЮЗ 5 10 км 10 баллов -2.4 -14.8 38 -8 -8 1040.0 1003.8
18 23.02 ЮЗ 6
{11}
10 км 10 баллов -2.6 -12.6 46 -9 -9 1038.0 1001.8 -2.1 2
21 23.02 З 5
{10}
10 км 10 баллов -2.6 -12.1 48 -9 -9 1036.0 999.9
00 24.02 ЮЗ 5
{11}
10 км 10 баллов -2.8 -10.8 54 -9 -9 1035.0 998.9
03 24.02 З 3
{10}
10 км 10 баллов -2.8 -8.5 65 -8 -8 1034.0 998.0 -2.9 2

 

Местоположение метеостанции Новогрудок (Гродненская область, Беларусь): широта 53.60 долгота 25.85 высота над уровнем моря 280 м.

В архиве по умолчанию представлена погода в Новогрудке за последнюю неделю. Архивные данные за месяц целиком и за предыдущие месяцы, начиная с января 2011 года, Вы можете получить, выбрав интересующий диапазон дат из раскрывающегося списка и нажав кнопку "Ввод!".


*Определитесь, кто Вы:
робот инопланетянин человек

Внимание! Время в таблицах - всемирное. Для получения местного времени необходимо прибавить поправку, которая равна 3 ч.

Смотрите также архив погоды в соседних городах и на ближайших метеорологических станциях:

Погода в Лиде (Гродненская область, Беларусь) (48 км)
Погода в Барановичах (Брестская область, Беларусь) (53 км)
Погода в Столбцах (Минская область, Беларусь) (60 км)
Погода в Воложине (Минская область, Беларусь) (70 км)
Погода в Ошмянах (Гродненская область, Беларусь) (92 км)
Погода в Ганцевичах (Брестская область, Беларусь) (102 км)
Погода в Волковыске (Гродненская область, Беларусь) (104 км)
Погода в Ивацевичах (Брестская область, Беларусь) (105 км)
Погода в Варена (Литва) (112 км)
Погода в Гродно (Гродненская область, Беларусь) (119 км)

Пояснения к столбцам:

Ветер - указаны скорость ветра в м/с - средняя за 10 мин, порывы в срок и между сроками (в фигурных скобках) и направление, откуда дует ветер: С - северный, СВ - северо-восточный, В - восточный, ЮВ - юго-восточный, Ю - южный, ЮЗ - юго-западный, З - западный, СЗ - северо-западный.
Видимость - горизонтальная дальность видимости в метрах или километрах. При видимости от 1 до 10 км при отсутствии осадков обычно наблюдается дымка, при ухудшении видимости до 1 км и менее - туман. В сухую погоду видимость может ухудшаться дымом, пылью или мглою.
Явления - указаны атмосферные явления, наблюдавшиеся в срок или в последний час перед сроком; фигурными скобками обозначены явления, наблюдавшиеся между сроками (за 1-3 часа до срока); квадратными скобками обозначены град или гололедные отложения с указанием их диаметра в мм.
Облачность - указаны через наклонную черту общая и нижняя облачность в баллах и высота нижней границы облаков в метрах; квадратными скобками обозначены формы облаков: Ci - перистые, Cs - перисто-слоистые, Cc - перисто-кучевые, Ac - высококучевые, As - высокослоистые, Sc - слоисто-кучевые, Ns - слоисто-дождевые, Cu - кучевые, Cb - кучево-дождевые. Подробнее классификацию облаков см. в Атласе облаков (PDF).
T - Температура воздуха - температура, измеренная на высоте 2 м над землей.
Td - Температура точки росы - температура, при понижении до которой содержащийся в воздухе водяной пар достигнет насыщения.
f - Относительная влажность воздуха - влажноcть воздуха, измеренная на высоте 2 м над землей.
Te - Эффективная температура - температура, которую ощущает одетый по сезону человек в тени. Характеристика душности погоды. При расчете учитывается влияние влажности воздуха и скорости ветра на теплоощущения человека.
Tes - Эффективная температура на солнце - температура, которую ощущает человек, с поправкой на солнечный нагрев. Характеристика знойности погоды. Зависит от высоты солнца над горизонтом, облачности и скорости ветра. Ночью, в пасмурную погоду, а также при ветре 12 м/с и более поправка равна нулю.
P - Атмосферное давление - приведенное к уровню моря атмосферное давление.
Po - Атмосферное давление - измеренное на уровне метеостанции атмосферное давление.
Tmin - Минимальная температура - минимум температуры воздуха на высоте 2 м над землей.
Tmax - Максимальная температура - максимум температуры воздуха на высоте 2 м над землей.
R - Количество осадков - Количество выпавших осадков за период времени, мм. При наведении курсора мыши на число - период времени, за который выпало указанное количество осадков.
R24 - Количество осадков - Количество выпавших осадков за 24 часа, мм.
S - Снежный покров - Высота снежного покрова, см. При наведении курсора мыши на число - состояние снежного покрова и степень покрытия местности в баллах.